Lapse_Rate
7.7 7.6 7.7 7.7 7.6 7.5 7.4 7.5 7.8 7.8 7.7 7.5 7.6 7.6 7.6 7.9 7.8 7.6 7.6 7.5 7.5 7.4 7.2 7.1 7.1 6.9 7.0 7.2 7.2 7.1 6.9 6.8 6.7 6.8 6.7 6.6 6.3 6.2 6.3 6.3 6.0 6.0 6.2
8.0 7.6 7.6 7.6 7.5 7.7 7.9 7.8 7.9 7.9 7.8 8.0 8.1 8.0 8.0 7.8 7.8 7.7 7.4 7.3 7.3 7.2 7.1 6.9 6.9 6.9 6.8 6.9 7.0 7.0 6.9 6.9 6.9 6.8 6.7 6.6 6.6 6.6 6.7 6.5 6.3 6.4 6.3
7.6 7.3 7.5 7.7 7.7 7.8 7.8 7.8 7.9 8.0 8.1 8.2 8.1 8.1 7.9 7.8 7.8 7.8 7.4 7.2 7.0 6.9 6.8 6.8 6.8 7.0 6.9 6.9 6.9 6.9 7.0 7.0 6.9 6.9 6.8 6.5 7.0 6.7 6.7 6.6 6.3 6.4 6.4
7.5 7.8 7.9 7.8 7.8 7.7 7.8 7.9 8.0 8.0 7.9 7.9 7.8 7.8 7.7 7.6 7.5 7.6 7.2 7.2 7.1 6.9 6.8 6.7 6.7 6.9 6.7 6.7 6.9 7.1 7.2 7.2 6.9 6.7 6.7 6.6 6.8 6.5 6.6 6.7 6.6 6.5 6.5
7.9 7.9 7.9 7.9 7.8 7.9 8.0 8.0 7.9 7.8 7.8 7.7 7.6 7.5 7.4 7.4 7.4 7.4 7.2 7.2 7.1 7.1 7.1 7.1 7.1 7.1 6.9 6.9 6.8 6.8 7.0 7.0 6.8 6.6 6.5 6.8 6.6 6.5 6.5 6.7 6.8 6.7 6.4
7.8 7.9 7.8 7.7 7.8 7.9 7.9 7.8 7.7 7.5 7.3 7.1 6.9 6.8 6.8 6.9 6.9 6.9 6.9 6.9 6.9 6.9 6.9 7.0 7.0 7.1 7.1 7.1 7.1 7.1 7.0 6.8 6.6 6.5 6.4 6.5 6.5 6.5 6.4 6.3 6.6 6.6 6.3
7.8 7.7 7.6 7.6 7.5 7.6 7.6 7.5 7.3 7.2 7.1 7.1 7.0 6.9 6.8 6.8 6.9 6.9 6.9 6.8 6.8 6.7 6.7 6.7 6.7 6.7 6.8 6.8 6.9 7.1 7.1 6.9 6.8 6.6 6.3 6.3 6.4 6.5 6.3 6.2 6.2 6.5 6.3
7.6 7.5 7.5 7.5 7.4 7.4 7.2 7.0 7.1 7.1 7.3 7.3 7.1 6.9 6.8 6.8 6.8 6.9 6.9 6.8 6.8 6.7 6.7 6.7 6.7 6.8 6.9 7.0 7.0 7.0 6.9 6.9 6.9 6.7 6.2 6.1 6.5 6.3 6.1 6.2 6.0 6.1 5.8
7.5 7.4 7.4 7.3 7.0 6.8 6.9 6.9 7.0 7.1 7.2 7.2 7.1 7.0 7.0 7.0 6.9 6.9 6.9 6.8 6.8 6.8 6.7 6.7 6.8 6.7 6.7 6.7 6.8 6.8 6.8 6.9 6.8 6.8 6.8 6.6 7.1 6.4 6.2 6.3 6.1 6.1 5.9
7.3 7.4 7.3 7.1 6.9 6.9 7.1 7.1 7.2 7.2 7.2 7.1 6.9 6.8 6.7 6.7 6.6 6.6 6.6 6.6 6.6 6.6 6.6 6.6 6.6 6.5 6.5 6.4 6.4 6.5 6.5 6.4 6.5 6.7 6.7 7.1 7.0 6.5 6.3 6.3 6.3 6.1 6.1
7.3 7.1 6.8 6.3 6.6 6.7 6.8 6.9 6.8 6.8 6.8 6.7 6.6 6.6 6.6 6.6 6.6 6.7 6.7 6.7 6.7 6.6 6.6 6.5 6.5 6.4 6.4 6.4 6.3 6.3 6.2 6.1 6.2 6.2 5.9 6.8 6.5 6.5 6.4 6.3 6.1 6.2 6.3
6.9 6.7 6.6 6.6 6.8 6.8 6.7 6.6 6.7 6.7 6.7 6.7 6.7 6.7 6.8 6.7 6.7 6.6 6.7 6.6 6.6 6.6 6.5 6.6 6.6 6.6 6.5 6.3 6.3 6.4 6.2 6.1 5.9 5.9 5.7 6.1 6.1 6.2 6.2 6.0 6.1 6.0 6.1
5.9 5.9 6.2 6.8 6.8 6.5 6.4 6.6 6.6 6.7 6.8 6.7 6.7 6.6 6.6 6.6 6.7 6.5 6.3 6.4 6.5 6.5 6.4 6.5 6.6 6.5 6.4 6.3 6.3 6.2 6.2 6.2 6.2 5.9 5.7 6.0 5.9 6.0 6.0 6.0 6.0 5.9 5.9
6.1 5.8 6.2 6.6 6.6 6.6 6.7 6.7 6.8 6.8 6.6 6.5 6.5 6.6 6.6 6.6 6.5 6.4 6.4 6.2 6.2 6.1 6.1 6.0 5.9 6.0 6.0 6.0 6.1 6.0 6.0 5.9 5.8 5.9 5.9 6.1 5.7 5.7 5.8 6.0 5.9 6.0 6.1
6.3 6.2 6.0 6.6 6.8 6.8 6.8 6.6 6.7 6.7 6.6 6.7 6.6 6.6 6.5 6.3 6.3 6.3 6.1 6.2 6.1 6.0 5.9 5.9 5.9 5.9 5.9 6.0 6.1 6.1 6.1 6.0 5.9 5.7 5.4 6.1 5.9 5.7 5.6 5.6 5.8 5.9 5.9
6.7 6.5 6.3 6.2 6.7 6.6 6.5 6.6 6.7 6.7 6.6 6.5 6.4 6.3 6.2 6.1 6.0 5.9 5.9 5.8 5.8 5.8 5.8 5.8 5.8 5.8 5.8 5.7 5.8 5.8 5.9 5.9 5.9 6.0 5.9 5.8 6.0 5.8 5.7 5.7 5.6 5.7 5.7
6.8 6.7 6.6 6.2 6.8 6.8 6.8 6.8 6.7 6.6 6.6 6.4 6.3 6.3 6.1 5.8 5.6 5.5 5.5 5.5 5.4 5.4 5.5 5.7 5.8 5.8 5.8 5.7 5.6 5.6 5.7 5.7 5.6 5.5 5.6 5.4 5.9 6.1 5.9 5.8 5.8 5.7 5.7
6.8 6.6 6.5 6.8 6.9 7.0 6.9 6.9 6.8 6.6 6.5 6.3 6.1 5.8 5.8 5.8 5.8 5.8 5.8 5.7 5.5 5.6 5.7 5.8 5.9 5.9 6.0 6.1 6.1 6.1 5.8 5.7 5.8 5.9 5.8 5.7 5.2 5.2 5.9 5.8 5.9 5.8 5.9
6.5 6.7 6.9 7.0 6.9 7.0 7.0 6.8 6.8 6.7 6.4 6.2 6.0 5.7 5.7 5.7 5.8 5.7 5.7 5.8 5.7 5.7 5.9 5.9 6.1 6.1 6.4 6.6 6.8 6.2 6.2 6.4 6.1 6.0 6.3 6.2 6.0 5.5 5.2 5.5 5.6 5.7 5.8
7.4 7.3 7.3 7.2 7.2 7.4 6.9 6.8 6.6 6.6 6.4 6.3 6.1 5.9 5.9 5.7 5.7 5.5 5.4 5.6 5.9 5.8 6.0 6.1 5.9 6.0 5.7 5.8 5.8 5.7 5.7 5.5 6.1 6.3 5.8 5.9 5.9 6.0 6.1 5.2 5.6 5.7 5.4
7.4 7.5 7.4 7.3 7.3 7.0 7.1 7.0 6.7 6.7 6.5 6.5 6.3 6.0 6.0 5.8 5.7 5.5 5.5 5.5 5.5 5.6 5.9 6.0 6.1 6.1 6.2 6.3 6.0 6.1 5.9 6.2 6.0 6.1 6.3 6.3 6.0 5.9 6.1 6.2 5.2 5.8 5.5
7.3 7.3 7.2 7.0 7.0 7.0 7.0 7.0 7.0 6.9 6.7 6.4 6.0 5.7 5.6 5.7 5.7 5.9 5.8 5.7 5.4 5.7 5.9 6.1 6.1 6.1 6.1 6.4 6.4 6.4 6.2 6.2 6.0 5.6 5.5 6.1 6.2 6.0 5.7 5.9 5.9 5.9 5.7
7.2 7.2 7.1 7.1 7.0 6.9 6.9 6.7 6.8 6.7 6.3 5.9 5.6 5.8 5.6 5.6 5.8 5.9 6.1 6.0 6.1 6.1 6.0 6.0 6.0 6.1 6.2 6.5 6.7 6.5 6.3 6.2 6.0 6.1 6.4 5.6 5.5 5.7 6.3 5.7 5.4 5.8 6.0
7.1 7.0 6.9 6.9 6.7 6.7 6.7 6.6 6.5 6.2 5.8 5.4 5.6 5.7 6.1 6.0 6.2 6.4 6.3 6.1 6.1 6.1 6.1 6.2 6.5 6.8 6.8 6.8 6.9 6.9 6.2 6.3 6.5 6.5 6.7 6.6 6.3 6.1 5.7 6.0 5.5 5.1 5.7
7.0 7.0 7.0 6.8 6.7 6.5 6.3 6.2 6.1 5.8 5.8 5.7 6.0 6.3 6.5 6.4 6.4 6.3 6.2 6.2 6.2 6.2 6.3 6.5 6.8 6.9 7.1 6.9 6.8 6.9 6.9 6.7 6.4 6.2 6.3 6.0 6.8 6.7 6.3 6.0 5.6 5.2 5.1
7.0 6.9 6.7 6.4 6.0 5.7 5.8 5.7 5.9 5.9 6.2 6.4 6.6 6.7 6.8 6.5 6.2 6.0 5.9 6.0 6.0 6.2 6.5 6.6 6.8 6.9 6.9 6.9 6.9 6.8 6.6 6.7 6.4 6.5 6.4 6.3 6.1 6.4 6.3 6.7 6.5 5.4 5.0
Wind_Speed
11 13 9 8 6 5 5 6 7 10 12 10 6 6 5 11 13 15 15 15 13 10 10 9 8 9 9 9 10 9 8 7 6 6 4 2 4 6 6 9 12 4 10
11 17 11 12 11 7 6 7 8 9 12 12 13 10 12 15 16 15 14 12 10 9 10 10 9 8 7 8 8 7 7 5 4 3 6 8 4 8 4 6 12 9 9
12 17 16 15 15 14 9 9 7 10 12 13 13 13 12 13 12 11 9 6 8 8 9 8 9 9 8 7 7 6 6 6 5 5 11 14 8 10 6 2 6 5 2
12 15 17 13 14 13 13 12 11 9 9 8 10 10 11 11 10 9 7 6 7 7 7 7 8 7 6 5 5 5 6 6 7 10 13 11 4 10 7 2 1 1 1
11 17 15 12 12 12 11 10 11 10 11 11 10 9 8 8 6 7 6 5 5 5 5 6 8 4 3 3 5 5 5 6 9 14 18 8 12 7 7 0 8 7 5
12 18 13 11 12 11 11 10 10 10 10 10 10 9 9 8 8 7 7 7 7 7 8 7 6 5 4 4 4 4 5 7 11 15 16 7 7 6 4 3 5 3 2
12 15 13 11 11 9 9 10 11 10 9 9 9 9 8 8 8 8 7 8 8 8 8 7 7 7 7 6 5 5 6 8 12 16 5 2 7 9 6 7 8 8 7
12 13 11 9 8 8 8 8 9 9 10 10 10 9 8 9 9 9 10 9 9 9 8 9 7 7 7 6 5 6 7 10 12 13 4 9 10 8 7 8 6 6 6
11 11 12 11 10 8 8 8 9 9 8 8 8 7 7 7 7 7 8 8 8 8 7 6 5 3 3 2 3 4 6 10 13 10 10 14 11 8 8 6 6 5 6
8 9 8 9 9 9 12 10 8 7 6 6 5 5 4 7 7 6 6 7 5 5 4 3 1 1 2 3 4 5 9 14 15 7 5 11 8 7 7 7 7 9 9
8 7 5 7 5 4 4 9 9 8 7 8 7 4 6 4 0 7 9 5 3 2 1 1 2 5 8 10 10 8 11 14 6 10 9 10 7 3 5 5 6 8 8
9 9 9 4 5 3 3 3 3 3 2 3 5 4 4 5 5 5 4 8 8 7 9 10 9 10 13 11 9 12 11 8 11 9 2 9 6 4 5 5 5 5 4
11 9 8 5 3 1 6 6 1 1 2 2 1 6 7 7 5 6 4 5 3 10 8 10 8 9 9 9 10 11 11 11 11 10 8 9 5 6 7 6 5 5 5
11 9 7 6 5 3 3 3 3 2 4 3 8 3 7 6 7 8 7 10 9 8 8 9 9 8 9 10 11 10 10 10 11 8 7 8 1 5 6 6 6 5 4
8 9 9 8 6 5 3 3 2 3 1 5 2 5 5 7 6 8 8 9 9 10 9 9 10 10 10 10 10 10 11 10 11 11 6 9 3 4 4 4 3 3 4
10 8 8 8 7 5 4 1 2 2 1 3 1 5 2 4 6 7 8 9 10 10 11 11 11 9 9 12 9 11 11 13 12 12 11 11 9 5 4 4 4 5 3
7 7 5 6 6 6 5 3 3 1 2 2 1 2 0 3 5 8 8 8 11 13 12 13 12 12 9 9 11 9 11 13 13 13 12 13 14 12 8 4 3 3 2
5 3 4 5 6 8 4 2 2 1 3 4 4 3 3 4 6 8 7 7 13 13 13 10 10 10 10 10 9 10 10 11 13 14 14 14 13 14 14 12 7 5 3
4 5 3 6 6 6 4 4 1 2 6 6 4 6 3 7 7 9 9 12 13 13 9 9 10 10 10 11 12 11 10 10 11 13 13 15 15 15 13 20 15 10 7
5 2 1 3 4 1 2 2 4 4 5 5 6 6 7 10 9 11 12 13 14 10 9 10 11 11 11 11 14 13 11 10 10 10 12 16 16 17 17 14 14 14 15
4 5 5 5 5 4 3 4 4 4 4 6 6 7 8 9 12 13 12 12 12 10 10 11 11 12 11 11 11 11 12 13 13 11 10 11 13 17 18 17 15 16 18
9 8 6 5 5 4 2 4 3 5 5 6 7 8 10 8 11 12 10 10 12 10 11 11 11 10 10 10 11 12 13 12 12 14 13 13 14 12 12 18 17 17 12
10 8 7 7 6 7 7 3 5 5 4 5 6 9 11 15 15 13 13 11 11 11 10 11 11 13 11 11 13 12 13 13 11 11 10 12 13 10 11 12 17 18 17
8 7 7 6 5 6 7 5 5 5 7 8 8 9 11 19 18 16 17 15 11 9 11 10 10 11 11 12 10 11 11 10 7 11 12 7 7 9 7 10 10 15 17
7 6 5 4 4 5 5 4 6 9 9 9 9 10 12 12 17 19 18 15 11 10 11 10 8 9 8 8 7 9 11 10 9 4 9 9 8 4 5 3 9 9 15
5 5 5 6 7 5 7 8 8 9 9 9 10 10 9 10 11 16 18 13 13 9 7 6 5 6 5 5 5 5 4 3 3 3 2 5 7 5 9 9 7 8 11
Wind_Direction
113 109 105 79 87 129 93 54 44 54 50 65 86 94 91 91 88 85 84 78 73 69 49 31 30 21 26 35 38 35 26 22 18 14 353 42 92 71 17 350 350 309 99
107 107 89 65 56 81 74 58 44 56 61 59 57 69 90 93 87 82 77 68 62 51 44 28 24 31 28 46 47 50 37 34 11 341 292 245 173 120 68 1 11 74 98
122 120 93 67 67 75 72 70 65 64 64 65 70 81 98 100 97 92 84 73 57 36 32 25 29 44 42 43 45 36 25 14 336 300 277 271 169 127 108 30 21 48 78
109 102 89 81 78 79 82 84 82 85 87 83 82 85 92 98 100 100 89 57 41 29 21 21 35 50 38 23 12 4 6 348 323 300 270 259 270 121 123 153 13 7 244
105 95 94 88 88 85 83 82 77 78 76 75 80 85 95 97 105 85 74 66 63 50 44 33 41 54 40 19 9 4 352 327 304 289 267 334 333 144 105 336 218 205 223
118 105 103 102 89 82 80 82 87 84 81 76 76 82 77 74 65 59 49 46 47 50 40 43 41 27 360 357 353 341 324 300 292 276 295 271 273 48 33 306 298 283 196
109 113 109 91 90 89 87 80 76 77 76 71 73 77 78 80 76 66 58 55 48 43 45 40 39 37 30 24 17 358 334 310 285 282 272 282 312 25 334 296 287 300 293
118 113 123 120 112 106 95 89 86 80 74 74 77 78 81 75 76 78 76 74 69 68 63 57 57 55 58 48 21 356 334 315 292 254 223 302 56 8 309 288 284 291 316
127 133 139 136 127 127 119 107 90 80 83 86 88 93 93 93 88 87 87 82 77 71 66 68 72 75 68 37 354 329 306 297 292 303 316 65 46 15 344 293 264 285 319
148 150 134 149 143 154 140 114 105 106 110 111 115 118 142 154 138 131 123 83 71 72 80 96 120 216 248 245 250 274 283 281 264 288 193 87 58 359 340 359 351 287 262
162 143 146 129 105 90 78 118 153 146 171 166 165 155 239 238 182 165 86 96 113 123 129 213 261 261 253 240 225 234 267 264 321 286 85 89 80 336 312 327 331 334 297
173 169 144 141 104 99 97 105 125 137 116 38 27 11 334 13 16 325 180 179 191 201 214 214 214 239 250 277 219 218 255 335 296 287 49 80 45 311 285 282 292 304 323
176 177 150 145 138 285 65 12 279 297 55 89 73 4 358 344 18 315 335 225 228 207 273 216 224 254 340 308 307 309 299 286 272 289 97 72 27 311 287 274 269 269 288
164 168 160 150 168 190 305 333 12 250 41 306 40 353 354 337 357 353 332 332 308 322 322 291 305 305 283 283 285 282 277 276 274 283 124 113 97 286 281 275 256 250 247
165 168 166 171 196 185 202 326 333 308 207 28 337 41 4 343 360 337 340 318 319 312 303 307 307 302 294 279 268 274 274 270 272 272 265 141 173 259 240 223 226 239 235
182 175 183 187 195 193 240 189 296 211 264 217 98 62 39 348 348 322 325 316 309 312 313 315 314 308 301 297 278 261 267 275 264 257 263 171 177 210 249 234 192 175 178
195 208 199 197 185 204 210 215 285 338 303 271 264 173 278 295 326 313 306 309 309 316 307 289 290 287 280 280 280 258 256 254 258 263 252 257 185 193 198 224 220 188 172
242 247 208 202 194 202 223 205 277 270 269 260 266 297 311 307 302 299 297 301 306 305 296 295 293 288 284 280 270 270 275 254 250 241 242 246 249 210 188 187 201 203 172
273 305 250 193 209 202 177 269 214 259 246 265 312 288 323 309 303 297 295 298 303 294 289 290 288 285 279 275 272 270 257 260 261 246 236 234 238 253 231 173 179 190 186
42 315 230 171 187 57 308 237 253 243 265 270 274 306 338 317 323 309 298 291 293 290 288 290 297 294 290 288 288 283 287 272 247 249 249 242 235 230 238 193 190 207 196
79 92 69 115 44 298 301 321 302 293 322 289 305 0 322 338 322 312 306 307 301 294 298 298 291 284 280 281 276 270 259 254 252 250 249 247 245 229 220 232 221 226 198
63 63 76 80 50 13 14 348 337 320 308 322 290 343 302 328 304 304 320 302 304 300 295 289 286 284 279 276 277 279 276 268 249 232 227 231 235 239 222 218 221 236 246
61 60 68 68 58 45 358 8 344 304 274 304 326 305 310 307 307 305 296 308 301 296 289 293 294 290 287 282 283 277 279 271 275 260 248 221 235 224 239 225 210 225 224
76 74 76 56 48 43 29 8 345 320 309 326 293 312 328 309 296 308 310 308 304 299 293 290 290 312 307 292 288 284 293 314 299 289 281 285 227 253 240 240 228 211 226
66 60 41 21 26 27 359 333 319 318 323 323 311 303 322 307 319 315 317 314 309 300 305 307 340 351 341 336 354 342 324 310 317 325 281 276 281 269 274 250 271 249 221
76 38 9 346 342 342 337 333 332 320 307 312 317 316 317 323 315 317 318 315 299 293 331 7 6 16 10 17 6 14 13 1 353 353 330 341 342 344 338 334 318 309 285